Regional Weather Roundup
Issued by NWS

Home | Current Version | Previous Version | Text Only | Print | Product List | Glossary Off
Versions: 1 2 3 4 5 6 7 8 9 10 11 12 13 14 15 16 17 18 19 20 21 22 23 24 25 26 27 28 29 30 31 32 33 34 35 36 37 38 39 40 41 42 43 44 45 46 47 48 49 50

000
ASUS43 KMPX 222210
RWRMN
WEATHER ROUNDUP FOR MINNESOTA
NATIONAL WEATHER SERVICE TWIN CITIES/CHANHASSEN MN
500 PM CDT WED OCT 22 2014


NOTE: "FAIR" INDICATES FEW OR NO CLOUDS BELOW 12,000 FEET WITH NO
SIGNIFICANT WEATHER AND/OR OBSTRUCTIONS TO VISIBILITY. N/A MEANS
CURRENT SKY AND/OR WEATHER CONDITIONS ARE NOT AVAILABLE.

MNZ060>063-068>070-222300-
   Twin Cities Metro

CITY           SKY/WX    TMP DP  RH WIND       PRES   REMARKS
TWIN CITIES    PTSUNNY   58  42  55 SE14G24   30.06F
ST PAUL        PTSUNNY   57  42  57 SE20G30   30.07F
CRYSTAL        MOSUNNY   60  41  49 SE21G29   30.04F
BLAINE         PTSUNNY   61  43  51 SE21G28   30.04F
LAKEVILLE      PTSUNNY   57  43  58 SE13G18   30.06F
EDEN PRAIRIE   MOSUNNY   60  43  53 SE17      30.03F
SOUTH ST PAUL  PTSUNNY   59  40  49 SE12G17   30.07S
LAKE ELMO      FAIR      55  41  58 SE10G20   30.08F
$$
MNZ001>005-007-008-013>017-022>024-027-028-222300-
   Northwest Minnesota

CITY           SKY/WX    TMP DP  RH WIND       PRES   REMARKS
BEMIDJI        CLOUDY    58  44  59 S14       29.90S
HALLOCK        CLOUDY    61  48  63 S17       29.78S
ROSEAU         CLOUDY    63  48  59 S16       29.83R
WARROAD        CLOUDY    61  48  63 S12G17    29.84R
THIEF RVR FALL CLOUDY    63  46  55 S18       29.83S
CROOKSTON      CLOUDY    63  46  55 S17G24    29.83S
FOSSTON        CLOUDY    59  45  58 S14       29.86S
DETROIT LAKES  CLOUDY    61  45  55 S21G28    29.88F
MOORHEAD       CLOUDY    63  52  67 SW16      29.86R
PARK RAPIDS    CLOUDY    59  43  55 S20G25    29.92S
MAHNOMEN       CLOUDY    61  46  57 S13G20    29.86S
$$
MNZ006-009>011-018-025>026-222300-
   North Central Minnesota

CITY           SKY/WX    TMP DP  RH WIND       PRES   REMARKS
BAUDETTE       PTSUNNY   59  43  55 S10G24    29.87R
FLAG ISLAND    PTSUNNY   54  46  76 S20       29.82S
INTL FALLS     PTCLDY    61  43  51 S8G20     29.91S
WASKISH        PTSUNNY   59  45  58 S12G21    29.90S
BIG FORK       MOSUNNY   59  43  55 SE14G21   29.94F
LONGVILLE      PTSUNNY   55  43  62 S12G21    29.95F
GRAND RAPIDS   MOSUNNY   55  39  54 S20G28    29.98S
CRANE LAKE     PTCLDY    55  39  54 S5G17     29.98F
ORR            PTCLDY    57  37  47 SE13G24   29.94S
COOK           CLEAR     57  39  51 SE10G18   29.98F
WALKER         FAIR      56  42  58 S9G18     29.93S
$$
MNZ012-019>021-037-222300-
   Northeast Minnesota

CITY           SKY/WX    TMP DP  RH WIND       PRES   REMARKS
DULUTH         MOSUNNY   52  40  63 SE10      30.04F
ELY            CLOUDY    54  36  50 S12G18    30.03F
HIBBING        MOSUNNY   58  39  49 S15G24    30.00F
EVELETH        PTSUNNY   54  37  54 SE13G23   30.02F
DULUTH HARBOR  PTSUNNY   59  39  47 S18       30.07F
TWO HARBORS    MOCLDY    55  28  35 E8        30.06F
SILVER BAY     CLEAR     48  39  71 NE7       30.08F
GRAND MARAIS     N/A     48  34  58 NE9       30.15F
G MARAIS ARPRT CLEAR     43  28  56 SE8       30.13F
$$
MNZ029>031-032-039>041-046>048-054>057-064-222300-
   West Central Minnesota

CITY           SKY/WX    TMP DP  RH WIND       PRES   REMARKS
FERGUS FALLS   LGT RAIN  64  46  52 S15       29.88S
WHEATON        RAIN      59  54  82 W10G21    29.90R
MORRIS         PTSUNNY   66  48  52 S13       29.89S
ALEXANDRIA     CLOUDY    63  46  54 SE20      29.93F
ELBOW LAKE     CLOUDY    64  48  54 S17       29.89S
WADENA         CLOUDY    61  45  55 SE9       29.92F
GLENWOOD       CLOUDY    64  46  52 SE14G21   29.94F
APPLETON       CLOUDY    68  48  49 S6        29.90S
BENSON         CLOUDY    66  48  52 S14       29.91F
ORTONVILLE     LGT RAIN  66  50  55 S8        29.89S
MADISON        CLOUDY    72  52  49 SW8       29.90S
WILLMAR        FAIR      66  45  45 SE17G30   29.95F
$$
MNZ033>034-036-042>043-049>051-058-059-222300-
   Central Minnesota

CITY           SKY/WX    TMP DP  RH WIND       PRES   REMARKS
ST CLOUD       MOSUNNY   63  43  48 S16G26    29.99F
SAUK CENTRE    FAIR      62  45  54 SE13G21   29.95S
PAYNESVILLE    CLOUDY    60  43  53 E18G25    29.97S
AITKIN         MOSUNNY   57  43  58 SE12G18   29.98F
PINE RIVER     PTSUNNY   55  45  67 SE13G21   29.99F
BRAINERD       PTSUNNY   56  42  59 S15G23    29.98F
STAPLES        PTSUNNY   57  43  58 SE9G20    29.95R
LONG PRAIRIE   PTSUNNY   59  43  55 SE14      29.95S
LITTLE FALLS   PTSUNNY   59  41  51 SE13G20   29.97F
LITCHFIELD     CLOUDY    64  45  48 SE12G18   29.98S
BUFFALO        MOSUNNY   60  42  50 SE9G22    30.01F
MAPLE LAKE     MOSUNNY   61  46  57 SE10G22   30.01S
$$
MNZ037-044-045-052-053-222300-
   East Central Minnesota

CITY           SKY/WX    TMP DP  RH WIND       PRES   REMARKS
PRINCETON      MOSUNNY   61  43  51 SE12G20   30.02F
MORA           RAIN      54  41  62 S8        30.05F
CAMBRIDGE      MOSUNNY   61  43  51 SE10G18   30.02F
RUSH CITY      PTSUNNY   57  40  52 SE9G16    30.05F
MOOSE LAKE     MOSUNNY   57  37  47 S8G17     30.01F
HINCKLEY       MOCLDY    55  43  62 SE9       30.04F
CLOQUET        PTSUNNY   55  37  50 SE9       30.03F
MCGREGOR       MOSUNNY   57  41  54 SE15G21   30.01F
$$
MNZ071>073-080-081-089-090-097-098-222300-
   Southwest Minnesota

CITY           SKY/WX    TMP DP  RH WIND       PRES   REMARKS
MONTEVIDEO     CLOUDY    68  48  49 S9        29.92S
GRANITE FALLS  CLOUDY    67  47  48 SE14G20   29.92F
CANBY          CLOUDY    68  51  55 SW9       29.91F
MARSHALL       CLOUDY    73  50  43 SW16      29.90S
REDWOOD FALLS  CLOUDY    66  46  48 SE17G25   29.94F
OLIVIA         CLOUDY    64  45  48 SE15G21   29.95S
PIPESTONE      RAIN      66  54  63 W14       29.96R
WINDOM         CLOUDY    66  46  48 SE24G30   29.96F
WORTHINGTON    PTSUNNY   70  48  46 S13G21    29.96S
JACKSON        PTSUNNY   66  45  45 S20G26    29.99F
TRACY          CLOUDY    71  49  46 S14G21    29.92S
SLAYTON        CLOUDY    72  47  42 S18G29    29.94S
$$
MNZ065>067-074>077-082>085-091>093-222300-
   South Central Minnesota

CITY           SKY/WX    TMP DP  RH WIND       PRES   REMARKS
MANKATO        CLOUDY    61  41  48 S18       30.03S
NEW ULM        CLOUDY    64  46  52 S22G28    29.98F
ST JAMES       CLOUDY    64  45  48 SE20G29   30.01S
FAIRMONT       CLOUDY    63  43  48 SE24      30.02F
GLENCOE        PTSUNNY   63  46  54 SE17G23   29.99F
FARIBAULT      MOSUNNY   61  43  51 SE13G23   30.07F
OWATONNA       MOSUNNY   59  41  51 SE18G24   30.07F
WASECA         MOSUNNY   59  37  44 SE14G28   30.07F
ALBERT LEA     SUNNY     61  43  51 S16G24    30.08F
$$
MNZ078>079-086>088-094>096-222300-
   Southeast Minnesota

CITY           SKY/WX    TMP DP  RH WIND       PRES   REMARKS
ROCHESTER      MOSUNNY   58  40  51 SE16G26   30.13F
STANTON        PTSUNNY   61  41  47 SE12G18   30.07S
DODGE CENTER   PTSUNNY   55  45  67 SE17      30.10F
WINONA         MOSUNNY   59  36  41 SE10G17   30.16F
AUSTIN         PTSUNNY   57  41  54 S13       30.11F
PRESTON        PTSUNNY   56  38  50 S15G21    30.15F
$$
ABBREVIATIONS USED IN REMARKS
   TC - TEMPERATURES IN CELSIUS
  WCI - WIND CHILL INDEX
   HX - HEAT INDEX
  VSB - VISIBILITY
$$



USA.gov is the U.S. government's official web portal to all federal, state and local government web resources and services.